[[{"header":{"parameterUnit":"m.s-1","parameterCategory":1,"la1":30.2991,"la2":30.254,"lo1":-89.0895,"lo2":-89.0444,"dy":0.0017,"dx":0.0017,"nx":28,"ny":28,"refTime":"2024-03-24T09:00:00:Z","depth":0,"parameterNumber":2,"parameterNumberName":"U-component_of_WINDS"},"data":[0,0,0,0,0,0,0,0,0,0,0,0,0,0,0,0,0,0,0,0,0,0,0,0,0,0,0,0,0,0,0,0,0,0,0,0,0,0,0,0,0,0,0,0,0,0,0,0,0,0,0,0,0,0,0,0,0,0,-5.5678,-5.5678,0,-5.5706,-5.5707,-5.5707,-5.5639,-5.5637,-5.5634,-5.5632,-5.5659,-5.5662,-5.5664,0,0,0,0,0,0,0,0,0,0,0,0,0,-5.5562,-5.5565,-5.5678,-5.5678,-5.5678,-5.5706,-5.5707,-5.5707,-5.5639,-5.5636,-5.5634,-5.5631,-5.5658,-5.5661,-5.5665,0,0,0,0,0,0,0,0,0,0,0,0,0,-5.5604,-5.5565,-5.5678,-5.5648,-5.5646,-5.5706,-5.5707,-5.5707,-5.564,-5.5636,-5.5633,-5.563,-5.5657,-5.5661,-5.5665,-5.5755,0,0,-5.5678,-5.5679,0,0,0,0,0,0,0,0,-5.5601,-5.5608,-5.5652,-5.565,-5.5648,-5.5666,-5.5676,-5.5723,-5.564,-5.5642,-5.5632,-5.5629,-5.5664,-5.5667,-5.5679,-5.5756,-5.5758,-5.5678,-5.5681,-5.5682,-5.5683,0,0,0,0,0,0,0,-5.5599,-5.5606,-5.5689,-5.5653,-5.565,-5.5632,-5.5635,-5.5684,-5.567,-5.5641,-5.5637,-5.5641,-5.5662,-5.5676,-5.568,-5.5758,-5.5678,-5.5682,-5.5684,-5.5686,-5.5909,-5.5912,0,0,0,0,0,0,-5.56,-5.5604,-5.5688,-5.569,-5.5616,-5.5637,-5.564,-5.5663,-5.567,-5.5668,-5.5644,-5.5638,-5.567,-5.5675,-5.568,-5.5784,-5.5682,-5.5686,-5.5688,-5.5905,-5.5909,-5.5913,0,0,0,0,0,0,-5.5598,-5.5608,-5.5687,-5.5646,-5.5655,-5.5643,-5.5669,-5.5665,-5.5679,-5.5672,-5.5669,-5.566,-5.5668,-5.5675,-5.5737,-5.5784,-5.5688,-5.5692,-5.5901,-5.5907,-5.5911,-5.5993,0,0,0,0,0,0,-5.5595,-5.5608,-5.5642,-5.5647,-5.5657,-5.5744,-5.5672,-5.5668,-5.5686,-5.5679,-5.5686,-5.5685,-5.5666,-5.5731,-5.5741,-5.5788,-5.5695,-5.5897,-5.5904,-5.591,-5.5986,-5.6001,-5.6013,0,0,0,0,0,-5.5591,-5.5664,-5.5644,-5.5655,-5.57,-5.5747,-5.5752,-5.573,-5.5691,-5.5724,-5.572,-5.5684,-5.5778,-5.5738,-5.5749,-5.5797,-5.5894,-5.5902,-5.5909,-5.598,-5.5998,-5.6013,0,0,0,0,0,0,-5.5663,-5.5664,-5.5642,-5.5719,-5.5733,-5.5735,-5.5777,-5.5749,-5.5774,-5.5766,-5.5737,-5.5739,-5.5807,-5.5809,-5.5764,-5.5884,-5.5829,-5.5839,-5.588,-5.5896,-5.5909,-5.5906,-5.5698,0,0,0,0,0,-5.5689,-5.5727,-5.5725,-5.5793,-5.5802,-5.5789,-5.5808,-5.579,-5.5803,-5.5809,-5.5808,-5.5822,-5.5854,-5.5876,-5.5906,-5.5988,-5.5987,-5.6027,-5.604,-5.6051,-5.6059,-5.6101,-5.6117,-5.5939,-5.5939,-5.5939,0,0,-5.574,-5.5745,-5.5771,-5.5808,-5.5817,-5.5856,-5.5794,-5.5839,-5.5867,-5.5815,-5.5873,-5.5874,-5.5887,-5.596,-5.5991,-5.5963,-5.6109,-5.6061,-5.607,-5.6072,-5.611,-5.6127,-5.6142,-5.5944,-5.5943,-5.5942,0,0,-5.5854,-5.5863,-5.5919,-5.593,-5.5945,-5.5936,-5.595,-5.5956,-5.5955,-5.6013,-5.5975,-5.6009,-5.6066,-5.6076,-5.6089,-5.6209,-5.6176,-5.622,-5.6288,-5.6328,-5.6342,-5.6355,-5.6394,-5.6409,-5.6228,-5.6229,-5.6229,0,-5.5915,-5.5974,-5.5952,-5.5999,-5.6016,-5.5973,-5.6029,-5.604,-5.6064,-5.6076,-5.6045,-5.6115,-5.6121,-5.6194,-5.6224,-5.6237,-5.625,-5.6216,-5.6343,-5.6355,-5.6366,-5.6403,-5.6418,-5.6233,-5.6233,-5.6232,-5.6232,0,-5.6048,-5.6089,-5.6133,-5.6158,-5.618,-5.6232,-5.6216,-5.6242,-5.6223,-5.6217,-5.6276,-5.6283,-5.6312,-5.6329,-5.6311,-5.6399,-5.6381,-5.6348,-5.629,-5.6388,-5.6422,-5.6437,-5.624,-5.6239,-5.6237,-5.6236,0,0,-5.6204,-5.6217,-5.6233,-5.6243,-5.6257,-5.6288,-5.6339,-5.6368,-5.6389,-5.6408,-5.6447,-5.6497,-5.6466,-5.6481,-5.6464,-5.65,-5.6591,-5.6461,-5.6461,-5.6482,-5.6686,-5.6709,-5.6726,-5.6572,-5.6574,-5.6577,-5.6684,0,-5.6314,-5.6399,-5.6381,-5.6465,-5.6501,-5.6462,-5.6505,-5.6518,-5.6515,-5.6545,-5.6541,-5.6576,-5.6534,-5.6542,-5.6577,-5.6573,-5.6631,-5.6565,-5.6605,-5.6607,-5.6599,-5.6744,-5.6768,-5.6869,-5.6698,-5.67,-5.6702,0,-5.6452,-5.6476,-5.6563,-5.6571,-5.6586,-5.6625,-5.665,-5.6681,-5.6695,-5.6689,-5.6707,-5.6683,-5.6731,-5.6678,-5.6743,-5.6698,-5.6714,-5.6715,-5.6719,-5.6718,-5.6657,-5.6744,-5.6901,-5.6915,-5.6723,-5.6722,-5.672,0,-5.6553,-5.6608,-5.6666,-5.6677,-5.6688,-5.6716,-5.6722,-5.6733,-5.6752,-5.6775,-5.6786,-5.6815,-5.6829,-5.6851,-5.6835,-5.6798,-5.6902,-5.6847,-5.6897,-5.6897,-5.6916,-5.6915,-5.7074,-5.6934,-5.6934,-5.6934,-5.6933,0,-5.6675,-5.6729,-5.6712,-5.6747,-5.6807,-5.6787,-5.6845,-5.6847,-5.6857,-5.6892,-5.6861,-5.6894,-5.6873,-5.6904,-5.6892,-5.6946,-5.6954,-5.6949,-5.6945,-5.695,-5.695,-5.6957,-5.6948,-5.6938,-5.6937,-5.6936,-5.6935,0,-5.6795,-5.6787,-5.6848,-5.6854,-5.6857,-5.69,-5.6905,-5.6938,-5.6934,-5.6977,-5.6987,-5.6979,-5.7014,-5.7001,-5.7039,-5.7031,-5.7099,-5.7087,-5.7094,-5.7089,-5.7138,-5.7132,-5.7304,-5.7324,-5.7175,-5.7177,-5.7178,0,-5.6872,-5.6912,-5.6924,-5.6945,-5.6953,-5.6988,-5.7007,-5.699,-5.7011,-5.7031,-5.7061,-5.7093,-5.7118,-5.7175,-5.7172,-5.7201,-5.7187,-5.7246,-5.7191,-5.7194,-5.7183,-5.718,-5.7182,-5.7255,-5.7257,-5.7258,-5.7259,0,-5.7007,-5.7001,-5.703,-5.7058,-5.7082,-5.7103,-5.7122,-5.7141,-5.7124,-5.715,-5.7185,-5.7205,-5.7243,-5.7275,-5.7301,-5.7306,-5.7279,-5.7278,-5.729,-5.7293,-5.7293,-5.729,-5.7119,-5.7272,-5.7271,-5.727,-5.7269,-5.7269,-5.7105,-5.7138,-5.7151,-5.7185,-5.7197,-5.7215,-5.7246,-5.7246,-5.7276,-5.7305,-5.7294,-5.7335,-5.7348,-5.7379,-5.7388,-5.7419,-5.7396,-5.7415,-5.7419,-5.7423,-5.7427,-5.7293,-5.7424,-5.7424,-5.7424,-5.7423,-5.7423,0,-5.7235,-5.7242,-5.7274,-5.73,-5.7326,-5.7302,-5.7321,-5.7344,-5.738,-5.7395,-5.7421,-5.7461,-5.7492,-5.7493,-5.7521,-5.7546,-5.7534,-5.7554,-5.7549,-5.755,-5.7448,-5.7432,-5.7562,-5.7562,-5.7562,-5.7562,-5.7562,-5.7562,-5.7306,-5.736,-5.7356,-5.7417,-5.7423,-5.7463,-5.7476,-5.7492,-5.7503,-5.755,-5.7576,-5.7577,-5.7586,-5.7615,-5.7642,-5.7641,-5.7651,-5.7675,-5.7669,-5.7572,-5.7558,-5.7545,-5.753,-5.7678,-5.7678,-5.7769,-5.7769,-5.777]},{"header":{"parameterUnit":"m.s-1","parameterCategory":1,"la1":30.2991,"la2":30.254,"lo1":-89.0895,"lo2":-89.0444,"dy":0.0017,"dx":0.0017,"nx":28,"ny":28,"refTime":"2024-03-24T09:00:00:Z","depth":0,"parameterNumber":3,"parameterNumberName":"V-component_of_WINDS"},"data":[0,0,0,0,0,0,0,0,0,0,0,0,0,0,0,0,0,0,0,0,0,0,0,0,0,0,0,0,0,0,0,0,0,0,0,0,0,0,0,0,0,0,0,0,0,0,0,0,0,0,0,0,0,0,0,0,0,0,3.5835,3.5836,0,3.5914,3.5915,3.5916,3.5924,3.5923,3.5923,3.5922,3.5998,3.6001,3.6004,0,0,0,0,0,0,0,0,0,0,0,0,0,3.5689,3.5692,3.5835,3.5836,3.5837,3.5914,3.5915,3.5916,3.5924,3.5923,3.5922,3.5922,3.5998,3.6001,3.6004,0,0,0,0,0,0,0,0,0,0,0,0,0,3.5759,3.5693,3.5835,3.5851,3.5853,3.5914,3.5915,3.5916,3.5925,3.5923,3.5922,3.5921,3.5996,3.6,3.6005,3.6054,0,0,3.6017,3.6019,0,0,0,0,0,0,0,0,3.5755,3.5764,3.5847,3.585,3.5852,3.5908,3.5892,3.5962,3.5925,3.5897,3.5922,3.5921,3.5969,3.5975,3.5993,3.6057,3.6061,3.6018,3.602,3.6022,3.6023,0,0,0,0,0,0,0,3.575,3.5761,3.5866,3.5849,3.5852,3.5853,3.5861,3.5905,3.5939,3.59,3.59,3.591,3.597,3.5989,3.5995,3.6062,3.6018,3.6021,3.6024,3.6025,3.6173,3.6174,0,0,0,0,0,0,3.5743,3.5757,3.5864,3.5869,3.58,3.5856,3.5866,3.5891,3.5938,3.5944,3.5911,3.591,3.5982,3.599,3.5997,3.6059,3.6022,3.6026,3.6028,3.6171,3.6173,3.6175,0,0,0,0,0,0,3.5739,3.5752,3.586,3.5813,3.5827,3.586,3.5889,3.5893,3.5912,3.5947,3.5952,3.5924,3.5981,3.5991,3.604,3.6062,3.6028,3.6031,3.617,3.6172,3.6174,3.6183,0,0,0,0,0,0,3.5735,3.5751,3.577,3.5813,3.5829,3.5903,3.589,3.5896,3.592,3.5919,3.596,3.5966,3.5981,3.6034,3.6045,3.6067,3.6035,3.6168,3.6171,3.6173,3.6181,3.6185,3.6189,0,0,0,0,0,3.573,3.5769,3.5771,3.5784,3.5855,3.5904,3.5913,3.5932,3.5921,3.5941,3.5964,3.5965,3.6058,3.6039,3.6051,3.6075,3.6167,3.617,3.6173,3.6179,3.6184,3.6189,0,0,0,0,0,0,3.5725,3.5774,3.5778,3.5832,3.5864,3.5906,3.5931,3.5936,3.5971,3.5969,3.5989,3.5998,3.6046,3.6065,3.6044,3.6126,3.6111,3.6117,3.6112,3.6117,3.6121,3.6115,3.6038,0,0,0,0,0,3.5731,3.5768,3.5809,3.5852,3.5868,3.5897,3.5919,3.5931,3.5964,3.5978,3.6004,3.6035,3.6072,3.6095,3.6131,3.6184,3.6193,3.6206,3.621,3.6213,3.6218,3.6249,3.6255,3.6185,3.6185,3.6185,0,0,3.5742,3.5774,3.5796,3.5852,3.5878,3.5916,3.5908,3.5948,3.5976,3.5983,3.6032,3.6052,3.6089,3.6141,3.6164,3.6158,3.624,3.6217,3.622,3.6223,3.6253,3.6259,3.6265,3.6187,3.6187,3.6187,0,0,3.5782,3.5809,3.585,3.5877,3.5918,3.5937,3.5947,3.5988,3.6003,3.6052,3.6059,3.6092,3.6154,3.6181,3.6202,3.6255,3.6257,3.6265,3.6286,3.6316,3.6321,3.6326,3.6346,3.6353,3.627,3.627,3.627,0,3.579,3.5849,3.5869,3.591,3.5935,3.5945,3.5986,3.6011,3.606,3.6077,3.6069,3.6149,3.6174,3.6233,3.6246,3.6263,3.6275,3.6261,3.6319,3.6324,3.6329,3.6348,3.6355,3.6271,3.6271,3.6271,3.6271,0,3.5858,3.5898,3.5926,3.5976,3.6004,3.6044,3.607,3.6096,3.6105,3.6125,3.6176,3.6207,3.625,3.6264,3.6273,3.6325,3.632,3.6315,3.6301,3.6337,3.6355,3.6362,3.6272,3.6272,3.6271,3.6271,0,0,3.5896,3.5959,3.5968,3.5992,3.6039,3.607,3.6111,3.6155,3.6177,3.6211,3.6246,3.6299,3.6297,3.6321,3.6333,3.6359,3.64,3.6352,3.6353,3.636,3.646,3.6464,3.6472,3.6402,3.6403,3.6405,3.6457,0,3.5942,3.6017,3.6038,3.6101,3.6139,3.615,3.6186,3.6218,3.6238,3.6272,3.6293,3.6332,3.6325,3.634,3.6366,3.6389,3.642,3.6386,3.6434,3.6436,3.6425,3.6481,3.6484,3.6533,3.6464,3.6466,3.6466,0,3.6006,3.6044,3.6111,3.6155,3.6172,3.6204,3.6246,3.6279,3.6316,3.6329,3.6357,3.6367,3.641,3.6394,3.6453,3.6429,3.645,3.6465,3.6467,3.6473,3.6453,3.6488,3.6548,3.6556,3.6478,3.6477,3.6476,0,3.6028,3.6096,3.6146,3.6166,3.6217,3.624,3.6262,3.6298,3.6324,3.636,3.6377,3.6418,3.644,3.6471,3.6491,3.6477,3.6549,3.6534,3.6561,3.6561,3.6576,3.6575,3.6641,3.6588,3.6588,3.6588,3.6588,0,3.6078,3.6119,3.6157,3.6188,3.6234,3.6257,3.6302,3.6325,3.6357,3.6392,3.6403,3.6435,3.646,3.6496,3.6512,3.6559,3.6569,3.658,3.6584,3.658,3.6578,3.6594,3.6591,3.659,3.659,3.6589,3.6589,0,3.6111,3.6138,3.6193,3.6239,3.6251,3.6284,3.6322,3.6352,3.6373,3.6417,3.6428,3.6461,3.6503,3.6527,3.658,3.6591,3.6644,3.6646,3.6632,3.6634,3.666,3.6657,3.6738,3.6751,3.669,3.669,3.6691,0,3.6142,3.6174,3.6223,3.6249,3.6272,3.6312,3.6339,3.6362,3.639,3.6435,3.646,3.6503,3.654,3.6607,3.6635,3.6675,3.6679,3.6704,3.6685,3.668,3.668,3.6678,3.6682,3.6708,3.6708,3.6709,3.6709,0,3.6193,3.6205,3.6244,3.6289,3.6321,3.6356,3.6391,3.6411,3.644,3.647,3.6515,3.6543,3.6599,3.6642,3.6685,3.6707,3.6713,3.6715,3.6724,3.672,3.6711,3.6717,3.6642,3.6713,3.6713,3.6712,3.6712,3.6712,3.6226,3.6256,3.6297,3.634,3.6369,3.6402,3.6433,3.6459,3.6497,3.6545,3.6557,3.6604,3.6641,3.67,3.6724,3.6761,3.6756,3.6768,3.6771,3.6774,3.6775,3.6705,3.6768,3.6768,3.6768,3.6768,3.6768,0,3.6279,3.6306,3.6346,3.6396,3.643,3.6435,3.6474,3.6502,3.6544,3.6579,3.6615,3.6667,3.671,3.6741,3.6785,3.6808,3.6812,3.6819,3.6818,3.6823,3.6777,3.6766,3.6815,3.6815,3.6815,3.6815,3.6815,3.6815,3.6311,3.6362,3.638,3.6446,3.6472,3.652,3.6542,3.6573,3.6601,3.6659,3.6695,3.6716,3.675,3.6796,3.6835,3.6844,3.6859,3.6866,3.6874,3.6831,3.6826,3.6821,3.6811,3.6869,3.6869,3.6918,3.6918,3.6918]}]]